This is the latest recevied weather packets stored in our database for station/object I2HLY-4. If no packets are shown the sender has not sent any weather packets the latest 10 day(s).
| Time | Temp. | Humidity | Pressure | Rain* | Wind** | Luminosity | Snow |
|---|---|---|---|---|---|---|---|
| 1777844838 | 11.67° C | 57% | 1019.9 hPa | 0 mm | - | - | - |
| 1777843932 | 11.67° C | 56% | 1020 hPa | 0 mm | - | - | - |
| 1777843043 | 11.67° C | 56% | 1019.8 hPa | 0 mm | - | - | - |
| 1777842141 | 11.67° C | 56% | 1019.9 hPa | 0 mm | - | - | - |
| 1777841234 | 11.67° C | 53% | 1019.8 hPa | 0 mm | - | - | - |
| 1777840347 | 12.22° C | 53% | 1019.6 hPa | 0 mm | - | - | - |
| 1777839443 | 12.22° C | 52% | 1019.8 hPa | 0 mm | - | - | - |
| 1777838534 | 12.78° C | 52% | 1019.6 hPa | 0 mm | - | - | - |
| 1777837638 | 12.78° C | 49% | 1019.5 hPa | 0 mm | - | - | - |
| 1777835831 | 12.22° C | 53% | 1019.5 hPa | 0 mm | - | - | - |
| 1777834933 | 12.22° C | 53% | 1019.4 hPa | 0 mm | - | - | - |
| 1777834040 | 12.22° C | 51% | 1019.5 hPa | 0 mm | - | - | - |
| 1777833139 | 12.78° C | 53% | 1019.4 hPa | 0 mm | - | - | - |
| 1777832244 | 12.78° C | 53% | 1019.3 hPa | 0 mm | - | - | - |
| 1777831343 | 13.89° C | 58% | 1019.1 hPa | 0 mm | - | - | - |
| 1777830445 | 14.44° C | 57% | 1019 hPa | 0 mm | - | - | - |
| 1777829550 | 15.56° C | 54% | 1019 hPa | 0 mm | - | - | - |
| 1777828632 | 16.11° C | 48% | 1019.2 hPa | 0 mm | - | - | - |
| 1777827736 | 16.67° C | 45% | 1019.2 hPa | 0 mm | - | - | - |
| 1777826836 | 16.67° C | 47% | 1019.2 hPa | 0 mm | - | - | - |
| 1777825936 | 16.67° C | 48% | 1019.4 hPa | 0 mm | - | - | - |
| 1777825041 | 16.67° C | 46% | 1019.5 hPa | 0 mm | - | - | - |
| 1777824143 | 16.67° C | 45% | 1019.6 hPa | 0 mm | - | - | - |
| 1777823244 | 16.67° C | 45% | 1019.7 hPa | 0 mm | - | - | - |
| 1777822350 | 16.67° C | 45% | 1019.8 hPa | 0 mm | - | - | - |
* Rain latest hour (hover to see other rain measurements)
** Current wind speed in m/s (hover to see current wind gust speed)